Time,TemperatureF,DewpointF,PressureIn,WindDirection,WindDirectionDegrees,WindSpeedMPH,WindSpeedGustMPH,Humidity,HourlyPrecipIn,Conditions,Clouds,dailyrainin,SoftwareType,DateUTC
2013-07-03 00:01:00,69.0,67.0,-100.00,ESE,120,0.0,2.0,91,0.00,,,-99.99,,2013-07-03 04:01:00,
2013-07-03 00:52:00,69.0,66.0,-100.00,East,95,0.0,1.0,92,0.00,,,-99.99,,2013-07-03 04:52:00,
2013-07-03 01:02:00,69.0,66.0,-100.00,South,170,0.0,1.0,93,0.00,,,-99.99,,2013-07-03 05:02:00,
2013-07-03 01:11:00,68.0,66.0,-100.00,SSE,165,0.0,2.0,93,0.00,,,-99.99,,2013-07-03 05:11:00,
2013-07-03 01:56:00,69.0,67.0,-100.00,SSE,155,0.0,2.0,93,0.00,,,-99.99,,2013-07-03 05:56:00,
2013-07-03 02:25:00,70.0,67.0,-100.00,SSW,200,0.0,4.0,90,0.00,,,-99.99,,2013-07-03 06:25:00,
2013-07-03 04:25:00,70.0,67.0,-100.00,SE,140,0.0,3.0,90,0.00,,,-99.99,,2013-07-03 08:25:00,
2013-07-03 04:56:00,69.0,67.0,-100.00,ESE,110,1.0,3.0,91,0.00,,,-99.99,,2013-07-03 08:56:00,
2013-07-03 05:25:00,69.0,66.0,-100.00,South,175,1.0,2.0,92,0.00,,,-99.99,,2013-07-03 09:25:00,
2013-07-03 05:56:00,68.0,66.0,-100.00,SE,145,0.0,3.0,93,0.00,,,-99.99,,2013-07-03 09:56:00,
2013-07-03 06:05:00,68.0,66.0,-100.00,SE,140,0.0,2.0,93,0.00,,,-99.99,,2013-07-03 10:05:00,
2013-07-03 06:55:00,68.0,66.0,-100.00,SE,130,0.0,4.0,93,0.00,,,-99.99,,2013-07-03 10:55:00,
2013-07-03 07:54:00,70.0,67.0,-100.00,South,175,1.0,4.0,90,0.00,,,-99.99,,2013-07-03 11:54:00,
2013-07-03 08:16:00,71.0,67.0,-100.00,SSE,155,2.0,6.0,87,0.00,,,-99.99,,2013-07-03 12:16:00,
2013-07-03 08:25:00,72.0,67.0,-100.00,SSW,195,2.0,6.0,85,0.00,,,-99.99,,2013-07-03 12:25:00,
2013-07-03 08:37:00,72.0,67.0,-100.00,ESE,110,2.0,9.0,85,0.00,,,-99.99,,2013-07-03 12:37:00,
2013-07-03 08:44:00,73.0,68.0,-100.00,ENE,70,2.0,8.0,85,0.00,,,-99.99,,2013-07-03 12:44:00,
2013-07-03 09:08:00,73.0,67.0,-100.00,South,185,4.0,9.0,80,-99.99,,,-99.99,,2013-07-03 13:08:00,
2013-07-03 11:26:00,78.0,68.0,-100.00,East,100,1.0,9.0,71,-99.99,,,-99.99,,2013-07-03 15:26:00,
2013-07-03 11:55:00,80.0,68.0,-100.00,SSW,205,5.0,11.0,67,-99.99,,,-99.99,,2013-07-03 15:55:00,
2013-07-03 12:17:00,80.0,68.0,-100.00,SSW,210,7.0,13.0,68,-99.99,,,-99.99,,2013-07-03 16:17:00,
2013-07-03 12:23:00,80.0,69.0,-100.00,South,185,6.0,12.0,69,-99.99,,,-99.99,,2013-07-03 16:23:00,
2013-07-03 12:39:00,79.0,68.0,-100.00,South,185,6.0,9.0,69,-99.99,,,-99.99,,2013-07-03 16:39:00,
2013-07-03 12:56:00,81.0,68.0,-100.00,South,190,6.0,14.0,63,-99.99,,,-99.99,,2013-07-03 16:56:00,
2013-07-03 13:16:00,82.0,68.0,-100.00,SSW,205,4.0,12.0,62,-99.99,,,-99.99,,2013-07-03 17:16:00,
2013-07-03 13:25:00,83.0,66.0,-100.00,SSW,195,3.0,9.0,56,-99.99,,,-99.99,,2013-07-03 17:25:00,
2013-07-03 13:40:00,83.0,68.0,-100.00,ESE,115,3.0,12.0,61,-99.99,,,-99.99,,2013-07-03 17:40:00,
2013-07-03 13:47:00,82.0,67.0,-100.00,SSW,195,4.0,12.0,61,-99.99,,,-99.99,,2013-07-03 17:47:00,
2013-07-03 13:53:00,82.0,67.0,-100.00,SSW,210,4.0,12.0,58,-99.99,,,-99.99,,2013-07-03 17:53:00,
2013-07-03 14:16:00,83.0,67.0,-100.00,East,90,4.0,12.0,57,-99.99,,,-99.99,,2013-07-03 18:16:00,
2013-07-03 14:25:00,84.0,67.0,-100.00,SW,235,3.0,8.0,56,-99.99,,,-99.99,,2013-07-03 18:25:00,
2013-07-03 14:56:00,84.0,66.0,-100.00,South,180,4.0,12.0,55,-99.99,,,-99.99,,2013-07-03 18:56:00,
2013-07-03 15:16:00,85.0,68.0,-100.00,South,180,3.0,9.0,55,-99.99,,,-99.99,,2013-07-03 19:16:00,
2013-07-03 15:38:00,84.0,68.0,-100.00,South,170,2.0,12.0,59,-99.99,,,-99.99,,2013-07-03 19:38:00,
2013-07-03 15:55:00,85.0,68.0,-100.00,South,185,4.0,11.0,57,-99.99,,,-99.99,,2013-07-03 19:55:00,
2013-07-03 16:14:00,82.0,69.0,-100.00,ESE,110,2.0,9.0,64,-99.99,,,-99.99,,2013-07-03 20:14:00,
2013-07-03 16:45:00,82.0,69.0,-100.00,South,185,4.0,9.0,62,-99.99,,,-99.99,,2013-07-03 20:45:00,
2013-07-03 16:55:00,83.0,69.0,-100.00,WSW,245,1.0,7.0,63,-99.99,,,-99.99,,2013-07-03 20:55:00,
2013-07-03 17:13:00,80.0,73.0,-100.00,SSE,160,1.0,7.0,77,-99.99,,,-99.99,,2013-07-03 21:13:00,
2013-07-03 18:54:00,71.0,68.0,-100.00,NNW,335,1.0,5.0,92,0.55,,,-99.99,,2013-07-03 22:54:00,
2013-07-03 19:06:00,70.0,68.0,-100.00,NW,315,1.0,3.0,92,1.10,,,-99.99,,2013-07-03 23:06:00,
2013-07-03 19:14:00,70.0,68.0,-100.00,SSW,195,1.0,4.0,93,1.69,,,-99.99,,2013-07-03 23:14:00,
2013-07-03 21:16:00,70.0,68.0,-100.00,SE,125,1.0,3.0,94,0.55,,,-99.99,,2013-07-04 01:16:00,
2013-07-03 21:44:00,69.0,68.0,-100.00,SE,130,1.0,3.0,94,0.00,,,-99.99,,2013-07-04 01:44:00,
2013-07-03 21:54:00,70.0,68.0,-100.00,SSE,160,1.0,3.0,94,0.00,,,-99.99,,2013-07-04 01:54:00,
2013-07-03 22:07:00,69.0,68.0,-100.00,East,80,0.0,5.0,94,0.00,,,-99.99,,2013-07-04 02:07:00,
2013-07-03 22:55:00,69.0,67.0,-100.00,ESE,105,1.0,3.0,94,0.00,,,-99.99,,2013-07-04 02:55:00,
2013-07-03 23:27:00,69.0,67.0,-100.00,South,175,0.0,6.0,94,0.00,,,-99.99,,2013-07-04 03:27:00,
2013-07-03 23:35:00,69.0,68.0,-100.00,SW,220,1.0,3.0,94,0.00,,,-99.99,,2013-07-04 03:35:00,
2013-07-03 23:56:00,69.0,67.0,-100.00,SE,140,0.0,6.0,94,0.00,,,-99.99,,2013-07-04 03:56:00,